This is the latest recevied weather packets stored in our database for station/object W0BJ. If no packets are shown the sender has not sent any weather packets the latest 10 day(s).
| Time | Temp. | Humidity | Pressure | Rain* | Wind** | Luminosity | Snow |
|---|---|---|---|---|---|---|---|
| 1778006299 | 10° C | 80% | 1013.6 hPa | 1.78 mm | - | - | - |
| 1778005944 | 10° C | 79% | 1013.9 hPa | 1.78 mm | - | - | - |
| 1778005398 | 10.56° C | 79% | 1013.8 hPa | 1.27 mm | - | - | - |
| 1778005344 | 10.56° C | 79% | 1013.8 hPa | 1.27 mm | - | - | - |
| 1778004744 | 11.11° C | 76% | 1013.7 hPa | 0.51 mm | - | - | - |
| 1778004498 | 11.11° C | 74% | 1013.8 hPa | 0.25 mm | - | - | - |
| 1778004144 | 11.67° C | 72% | 1013.9 hPa | 0.25 mm | - | - | - |
| 1778003598 | 12.22° C | 70% | 1014.4 hPa | 0.25 mm | - | - | - |
| 1778003544 | 12.22° C | 70% | 1014.4 hPa | 0.25 mm | - | - | - |
| 1778002944 | 12.22° C | 67% | 1014.2 hPa | 0 mm | - | - | - |
| 1778002699 | 12.78° C | 66% | 1014 hPa | 0 mm | - | - | - |
| 1778002344 | 12.78° C | 67% | 1014.3 hPa | 0 mm | - | - | - |
| 1778001798 | 12.78° C | 69% | 1013.9 hPa | 0 mm | - | - | - |
| 1778001744 | 12.78° C | 70% | 1013.8 hPa | 0 mm | - | - | - |
| 1778001143 | 12.78° C | 70% | 1013.7 hPa | 0 mm | - | - | - |
| 1778000897 | 12.78° C | 67% | 1013.8 hPa | 0 mm | - | - | - |
| 1778000545 | 12.78° C | 69% | 1013.7 hPa | 0 mm | - | - | - |
| 1777999999 | 12.78° C | 69% | 1013.4 hPa | 0 mm | - | - | - |
| 1777999945 | 12.78° C | 69% | 1013.4 hPa | 0 mm | - | - | - |
| 1777999344 | 12.78° C | 69% | 1013.3 hPa | 0 mm | - | - | - |
| 1777999098 | 12.78° C | 65% | 1013.2 hPa | 0 mm | - | - | - |
| 1777998744 | 12.78° C | 63% | 1013 hPa | 0 mm | - | - | - |
| 1777998197 | 13.33° C | 61% | 1012.9 hPa | 0 mm | - | - | - |
| 1777998143 | 13.33° C | 62% | 1012.8 hPa | 0 mm | - | - | - |
| 1777997543 | 13.33° C | 60% | 1012.7 hPa | 0 mm | - | - | - |
* Rain latest hour (hover to see other rain measurements)
** Current wind speed in m/s (hover to see current wind gust speed)